Location: York
(31.8935°S, 116.7682°E)
Time: 16:58:26
(UTC+08:00)

deb Explorer IX - All Passes

Search period start: 15 June 2021 00:00
Search period end: 25 June 2021 00:00
Orbit: 542 x 1097 km, 38.8° (Epoch: 14 June)

Date Brightness Start Highest point End Pass type
(mag) Time Alt. Az. Time Alt. Az. Time Alt. Az.
15 Jun - 01:15:16 10° WSW 01:21:35 89° SSE 01:26:53 10° ENE night (unlit)
15 Jun - 03:03:39 10° W 03:08:00 23° NW 03:11:51 10° N night (unlit)
15 Jun - 17:41:20 10° NNW 17:47:13 28° NE 17:53:11 10° E visible
15 Jun - 19:26:51 10° WNW 19:34:12 82° NNE 19:41:18 10° ESE visible
15 Jun - 21:14:51 10° W 21:21:57 53° S 21:28:27 10° ESE visible
15 Jun - 23:03:20 10° WSW 23:10:03 49° S 23:15:55 10° E night (unlit)
16 Jun - 00:51:11 10° WSW 00:57:41 89° SSE 01:03:09 10° ENE night (unlit)
16 Jun - 02:39:35 10° W 02:44:08 24° NW 02:48:10 10° NNE night (unlit)
16 Jun - 17:17:22 10° NNW 17:23:12 28° NE 17:29:10 10° E daylight
16 Jun - 19:02:50 10° WNW 19:10:09 82° NNE 19:17:20 10° ESE visible
16 Jun - 20:50:47 10° W 20:57:56 53° S 21:04:35 10° ESE visible
16 Jun - 22:39:13 10° WSW 22:46:04 49° S 22:52:07 10° E night (unlit)
17 Jun - 00:27:05 10° WSW 00:33:45 89° SSE 00:39:24 10° ENE night (unlit)
17 Jun - 02:15:29 10° W 02:20:16 25° NW 02:24:28 10° NNE night (unlit)
17 Jun - 16:53:25 10° NNW 16:59:10 27° NE 17:05:07 10° E daylight
17 Jun - 18:38:50 10° WNW 18:46:06 82° NNE 18:53:22 10° ESE visible
17 Jun - 20:26:43 10° W 20:33:54 54° S 20:40:41 10° ESE visible
17 Jun - 22:15:07 10° WSW 22:22:04 50° S 22:28:18 10° E visible
18 Jun - 00:02:59 10° WSW 00:09:48 89° SSE 00:15:38 10° ENE night (unlit)
18 Jun - 01:51:23 10° W 01:56:22 26° NW 02:00:46 10° NNE night (unlit)
18 Jun - 16:29:30 10° NNW 16:35:09 27° NE 16:41:04 10° E daylight
18 Jun - 18:14:50 10° WNW 18:22:02 82° NNE 18:29:22 10° ESE visible
18 Jun - 20:02:40 10° W 20:09:51 54° S 20:16:45 10° ESE visible
18 Jun - 21:51:02 10° WSW 21:58:04 51° S 22:04:27 10° E visible
18 Jun - 23:38:52 10° WSW 23:45:50 89° SSE 23:51:50 10° ENE night (unlit)
19 Jun - 01:27:15 10° W 01:32:27 27° NW 01:37:03 10° NNE night (unlit)
19 Jun - 16:05:36 10° NNW 16:11:07 27° NE 16:16:59 10° E daylight
19 Jun - 17:50:52 10° WNW 17:57:58 82° NNE 18:05:21 10° ESE visible
19 Jun - 19:38:38 10° W 19:45:48 54° S 19:52:48 10° ESE visible
19 Jun - 21:26:56 10° WSW 21:34:02 51° S 21:40:34 10° E visible
19 Jun - 23:14:45 10° WSW 23:21:51 89° SSE 23:28:02 10° ENE night (unlit)
20 Jun - 01:03:07 10° W 01:08:31 27° NW 01:13:18 10° NNE night (unlit)
20 Jun - 15:41:43 10° NNW 15:47:06 26° NE 15:52:52 10° E daylight
20 Jun - 17:26:55 10° WNW 17:33:54 82° NNE 17:41:18 10° ESE visible
20 Jun - 19:14:36 10° W 19:21:44 54° S 19:28:49 10° ESE visible
20 Jun - 21:02:51 10° WSW 21:10:00 51° S 21:16:40 10° E visible
20 Jun - 22:50:39 10° WSW 22:57:51 89° SSE 23:04:12 10° ENE night (unlit)
21 Jun - 00:38:59 10° W 00:44:34 28° NW 00:49:32 10° NNE night (unlit)
21 Jun - 15:17:52 10° NNW 15:23:05 26° NE 15:28:45 10° E daylight
21 Jun - 17:02:59 10° WNW 17:09:51 82° NNE 17:17:14 10° ESE daylight
21 Jun - 18:50:36 10° W 18:57:40 54° S 19:04:49 10° ESE visible
21 Jun - 20:38:47 10° WSW 20:45:57 52° S 20:52:44 10° E visible
21 Jun - 22:26:32 10° WSW 22:33:48 89° S 22:40:20 10° ENE night (unlit)
22 Jun - 00:14:51 10° W 00:20:36 29° NW 00:25:44 10° NNE night (unlit)
22 Jun - 14:54:01 10° N 14:59:05 25° NE 15:04:36 10° E daylight
22 Jun - 16:39:04 10° WNW 16:45:47 81° NNE 16:53:08 10° ESE daylight
22 Jun - 18:26:37 10° W 18:33:36 54° S 18:40:47 10° ESE visible
22 Jun - 20:14:43 10° WSW 20:21:52 52° S 20:28:47 10° E visible
22 Jun - 22:02:26 10° WSW 22:09:47 89° SSE 22:16:27 10° ENE visible
22 Jun - 23:50:42 10° W 23:56:37 30° NW 00:01:55 10° NNE night (unlit)
23 Jun - 14:30:12 10° N 14:35:05 24° NE 14:40:28 10° E daylight
23 Jun - 16:15:10 10° WNW 16:21:45 81° NNE 16:29:02 10° ESE daylight
23 Jun - 18:02:39 10° W 18:09:32 54° S 18:16:43 10° ESE visible
23 Jun - 19:50:40 10° WSW 19:57:48 52° S 20:04:48 10° E visible
23 Jun - 21:38:20 10° WSW 21:45:43 89° SSE 21:52:32 10° ENE visible
23 Jun - 23:26:34 10° W 23:32:36 30° NW 23:38:04 10° NNE night (unlit)
24 Jun - 14:06:23 10° N 14:11:06 24° NE 14:16:18 10° E daylight
24 Jun - 15:51:17 10° WNW 15:57:42 81° NNE 16:04:56 10° ESE daylight
24 Jun - 17:38:41 10° W 17:45:27 54° S 17:52:38 10° ESE visible
24 Jun - 19:26:39 10° WSW 19:33:43 52° S 19:40:47 10° E visible
24 Jun - 21:14:14 10° WSW 21:21:38 89° SSE 21:28:36 10° ENE visible
24 Jun - 23:02:25 10° W 23:08:34 31° NW 23:14:13 10° NNE night (unlit)
